Probability
0 0 0 0 0 0 0 0 0 0 0 0 0 0 0 0 0 0 0 0 0 0 0 0 0 0 0 0 0 0 0 0 1 2 4 4 3 1
0 0 0 0 0 0 0 0 0 0 0 0 0 0 0 0 0 0 0 0 0 0 0 0 0 0 0 0 0 0 0 0 1 2 3 3 2 1
0 0 0 0 0 0 0 0 0 0 0 0 0 0 0 0 0 0 0 0 0 0 0 0 0 0 0 0 0 0 0 0 0 1 1 2 2 1
0 0 0 0 0 0 0 0 0 0 0 0 0 0 0 0 0 0 0 0 0 0 0 0 0 0 0 0 0 0 0 0 0 0 0 1 1 1
0 0 0 0 0 0 0 0 0 0 0 0 0 0 0 0 0 0 0 0 0 0 0 0 0 0 0 0 0 0 0 0 0 0 0 0 0 0
0 0 0 0 0 0 0 0 0 0 0 0 0 0 0 0 0 0 0 0 0 0 0 0 0 0 0 0 0 0 0 0 0 0 0 0 0 0
0 0 0 0 0 0 0 0 0 0 0 0 0 0 0 0 0 0 0 0 0 0 0 0 0 0 0 0 0 0 0 0 0 0 0 0 0 0
0 0 0 0 0 0 0 0 0 0 0 0 0 0 0 0 0 0 0 0 0 0 0 0 0 0 0 0 0 0 0 0 0 0 0 0 0 0
0 0 0 0 0 0 0 0 0 0 0 0 0 0 0 0 0 0 0 0 0 0 0 0 0 0 0 0 0 0 0 0 0 0 0 0 0 0
0 0 0 0 0 0 0 0 0 0 0 0 0 0 0 0 0 0 0 0 0 0 0 0 0 0 0 0 0 0 0 0 0 0 0 0 0 0
0 0 0 0 0 0 0 0 0 0 0 0 0 0 0 0 0 0 0 0 0 0 0 0 0 0 0 0 0 0 0 0 0 0 0 0 0 0
0 0 0 0 0 0 0 0 0 0 0 0 0 0 0 0 0 0 0 0 0 0 0 0 0 0 0 0 0 0 0 0 0 0 0 0 0 0
0 0 0 0 0 0 0 0 0 0 0 0 0 0 0 0 0 0 0 0 0 0 0 0 0 0 0 0 0 0 0 0 0 0 0 0 0 0
0 0 0 0 0 0 0 0 0 0 0 0 0 0 0 0 0 0 0 0 0 0 0 0 0 0 0 0 0 0 0 0 0 0 0 0 0 0
0 0 0 0 0 0 0 0 0 0 0 0 0 0 0 0 0 0 0 0 0 0 0 0 0 0 0 0 0 0 0 0 0 0 0 0 0 0
0 0 0 0 0 0 0 0 0 0 0 0 0 0 0 0 0 0 0 0 0 0 0 0 0 0 0 0 0 0 0 0 0 0 0 0 0 0
0 0 0 0 0 0 0 0 0 0 0 0 0 0 0 0 0 0 0 0 0 0 0 0 0 0 0 0 0 0 0 0 0 0 0 0 0 0
0 0 0 0 0 0 0 0 0 0 0 0 0 0 0 0 0 0 0 0 0 0 0 0 0 0 0 0 0 0 0 0 0 0 0 0 0 0
0 0 0 0 0 0 0 0 0 0 0 0 0 0 0 0 0 0 0 0 0 0 0 0 0 0 0 0 0 0 0 0 0 0 0 0 0 0
0 0 0 0 0 0 0 0 0 0 0 0 0 0 0 0 0 0 0 0 0 0 0 0 0 0 0 0 0 0 0 0 0 0 0 0 0 0
0 0 0 0 0 0 0 0 0 0 0 0 0 0 0 0 0 0 0 0 0 0 0 0 0 0 0 0 0 0 0 0 0 0 0 0 0 0
0 0 0 0 0 0 0 0 0 0 0 0 0 0 0 0 0 0 0 0 0 0 0 0 0 0 0 0 0 0 0 0 0 0 0 0 0 0
0 0 0 0 0 0 0 0 0 0 0 0 0 0 0 0 0 0 0 0 0 0 0 0 0 0 0 0 0 0 0 0 0 0 0 0 0 0
Wind_Speed
2 2 2 2 2 1 1 1 3 2 0 1 2 2 2 1 2 2 1 2 2 2 2 2 2 2 2 2 3 3 3 3 4 5 7 8 10 11
1 2 2 1 2 2 1 1 1 3 2 0 1 2 2 2 3 3 2 3 2 2 2 2 2 1 1 1 1 2 3 3 4 4 5 6 8 9
1 1 2 1 1 2 1 1 1 2 2 0 1 2 2 3 3 2 3 2 2 2 2 2 2 1 1 0 1 2 3 3 4 5 6 6 7 8
0 0 1 1 2 1 1 2 1 1 2 2 1 2 2 2 2 3 3 3 2 3 3 3 2 2 1 0 1 1 2 3 4 5 5 6 6 7
1 1 1 1 0 1 1 1 1 1 2 2 1 1 2 2 2 3 3 3 3 4 4 4 3 2 2 1 1 1 2 3 3 4 5 5 6 7
2 2 2 2 2 2 1 1 1 2 2 2 1 1 1 2 2 2 2 3 3 3 4 3 4 4 4 3 2 2 2 2 3 4 4 5 6 6
2 2 3 4 5 3 2 2 2 2 2 2 1 1 0 1 0 0 1 1 2 2 2 2 2 2 3 4 4 3 3 2 2 2 3 4 5 6
3 3 3 3 4 5 5 5 5 4 3 2 2 2 1 1 1 1 1 1 1 2 2 2 2 2 2 2 3 4 4 3 3 2 2 3 4 6
4 3 3 3 4 2 2 3 3 4 5 4 4 3 3 3 3 1 1 1 1 1 1 1 2 2 2 2 4 4 4 5 5 4 4 4 5 6
5 5 4 4 4 4 3 2 1 2 3 3 4 3 3 3 3 3 3 1 1 1 0 0 2 2 2 2 3 4 5 6 6 6 6 6 6 6
5 5 5 5 7 8 5 4 2 2 2 4 4 3 3 4 4 3 2 2 0 1 0 1 1 2 2 2 2 5 5 6 6 7 7 7 7 6
4 4 8 8 8 9 6 5 5 3 2 2 1 1 1 1 4 3 3 2 1 1 0 1 0 1 2 2 2 2 3 5 7 7 8 8 8 4
4 4 5 10 9 9 9 6 7 5 3 3 2 2 2 1 1 1 2 2 2 2 1 1 1 0 0 2 2 2 2 2 3 4 6 8 8 5
6 5 5 9 9 8 7 7 8 6 4 3 3 2 1 1 1 1 2 2 2 2 1 1 1 1 1 1 2 2 2 2 2 3 4 6 6 7
5 8 8 8 7 5 6 8 7 5 4 3 3 2 1 1 1 2 2 3 3 3 3 2 1 1 1 2 2 2 2 2 2 3 4 4 4 4
5 6 8 7 5 4 4 4 4 4 5 4 3 2 2 2 2 2 2 2 2 2 4 4 3 1 1 1 1 2 2 2 3 3 4 4 3 3
6 3 3 3 3 3 3 3 3 4 3 3 3 3 3 2 2 2 2 2 2 1 2 3 3 2 1 1 1 1 1 2 2 3 3 4 4 4
9 5 5 6 6 6 5 4 3 4 4 4 4 4 4 3 3 2 2 2 2 1 1 2 3 3 3 2 1 1 1 2 3 3 3 4 6 5
7 6 7 7 7 6 6 5 5 4 4 5 4 4 4 4 3 3 2 2 1 1 0 1 1 1 1 3 4 1 1 2 3 4 4 4 7 8
6 7 8 7 7 7 7 6 5 5 4 5 5 5 4 4 3 3 2 2 2 1 0 0 0 1 2 3 3 3 2 3 4 5 6 6 7 9
8 7 7 7 7 7 7 7 7 6 6 5 5 5 5 4 4 3 3 3 2 2 1 2 2 3 2 1 3 5 4 4 5 6 7 8 8 7
9 9 8 8 8 8 7 7 7 6 7 5 5 5 5 4 5 5 4 3 2 2 2 2 2 1 1 2 5 7 7 6 7 10 11 10 7 7
9 9 8 8 8 8 8 8 9 7 7 6 6 5 5 4 4 4 3 3 2 2 1 1 1 1 2 3 5 7 10 10 8 8 8 10 14 18
Wind_Direction
33 42 42 19 28 39 95 135 136 128 84 336 356 354 6 49 53 64 62 85 108 125 138 153 163 177 187 206 222 226 232 241 246 245 244 243 245 247
33 50 41 24 28 36 59 80 117 137 145 269 342 335 354 42 55 59 48 62 75 102 114 121 141 154 163 198 237 230 231 246 259 262 257 253 253 254
27 52 36 38 47 40 55 73 83 115 128 63 2 356 26 38 33 42 50 49 41 65 97 120 124 122 119 137 256 245 240 246 256 264 266 262 260 260
351 53 7 54 53 41 55 69 77 92 129 133 28 20 30 19 33 43 36 42 34 41 68 85 99 101 96 76 275 259 255 256 258 264 268 268 267 268
205 199 221 127 68 44 64 70 66 76 94 123 99 36 27 17 38 36 33 20 22 38 49 52 52 54 54 28 341 294 274 266 262 261 265 269 273 273
218 209 207 193 197 182 146 135 113 96 94 103 97 52 34 9 51 44 25 14 8 13 20 24 31 35 30 21 4 342 308 287 278 270 266 266 268 271
229 224 222 215 211 198 179 172 146 129 120 117 118 87 27 40 61 31 51 355 359 4 0 5 10 12 9 6 9 3 357 343 319 299 284 278 276 275
220 234 240 233 228 219 207 186 173 162 163 156 163 175 210 202 169 138 116 55 346 348 17 345 8 353 338 345 1 17 30 26 13 353 328 307 295 289
214 217 225 215 205 193 207 191 197 197 182 168 173 196 199 200 169 159 171 170 224 293 24 338 345 327 320 349 7 34 43 34 25 13 355 336 319 306
213 208 210 219 204 185 172 169 200 224 205 183 186 202 202 187 173 171 168 156 302 319 125 289 324 313 323 337 6 40 42 33 22 12 1 348 334 320
219 213 208 215 218 191 170 180 206 256 231 187 186 194 193 175 156 125 124 115 357 316 29 167 311 319 323 333 3 23 27 24 16 9 3 357 346 333
217 222 220 216 216 193 179 180 198 219 181 155 151 131 115 141 162 159 160 153 166 258 258 147 332 2 337 324 334 355 8 11 10 7 2 358 354 346
207 213 217 214 211 202 190 191 203 183 163 154 136 111 87 85 96 145 156 158 163 202 210 154 151 120 256 305 321 341 1 358 356 354 354 352 352 352
204 206 205 202 204 200 194 197 188 160 141 141 137 142 136 130 109 106 117 116 112 134 126 129 154 174 201 272 289 319 336 348 351 344 343 343 348 348
201 194 191 190 186 187 190 180 166 152 148 153 167 175 169 149 114 98 74 81 73 58 55 68 112 171 195 235 270 300 319 328 351 345 339 341 339 342
187 184 179 173 163 156 153 157 155 163 163 165 162 146 124 113 97 91 90 76 76 33 27 40 42 83 203 240 243 282 299 307 331 335 326 319 322 326
155 138 142 149 161 160 148 146 147 147 149 144 143 140 134 120 102 88 96 90 100 85 358 357 0 10 262 217 252 280 301 304 306 320 324 316 307 311
153 167 181 183 182 180 173 166 162 163 160 151 146 146 144 138 124 100 94 108 116 109 27 349 356 8 7 348 228 246 288 290 303 312 308 304 302 303
171 183 186 188 186 181 177 172 173 170 159 153 151 150 144 138 131 126 119 112 115 121 12 1 41 74 18 307 308 268 239 296 305 304 295 288 293 298
191 188 190 187 183 181 178 173 164 156 154 154 151 151 149 144 141 144 146 148 153 160 193 317 186 186 209 249 274 284 274 277 293 299 299 293 283 280
196 193 188 184 181 178 175 170 165 164 162 158 156 155 153 146 149 154 156 160 155 170 211 245 254 275 250 248 279 285 279 267 271 285 299 303 303 300
193 192 188 184 179 174 169 165 162 161 161 159 158 157 156 154 158 162 165 169 182 197 223 254 288 305 199 250 278 289 295 299 286 284 280 275 284 292
193 188 183 181 177 170 167 166 165 166 166 164 161 159 157 156 159 161 167 173 179 201 230 269 292 264 253 262 280 290 296 302 305 305 294 281 278 278